QPF
0.00 0.00 0.00 0.00 0.00 0.00 0.00 0.00 0.00 0.00 0.00 0.00 0.00 0.00 0.00 0.00 0.00 0.00 0.00 0.00 0.00 0.00 0.00 0.00 0.00 0.00 0.02 0.04 0.07 0.06 0.01 0.00 0.03 0.03 0.03 0.05 0.05 0.04 0.02 0.01 0.01 0.00 0.00 0.00
0.00 0.00 0.00 0.00 0.00 0.00 0.00 0.00 0.00 0.00 0.00 0.00 0.00 0.00 0.00 0.00 0.00 0.00 0.00 0.00 0.00 0.00 0.00 0.00 0.00 0.00 0.00 0.00 0.01 0.04 0.05 0.01 0.00 0.01 0.05 0.03 0.02 0.03 0.08 0.05 0.04 0.04 0.01 0.00
0.00 0.00 0.00 0.00 0.00 0.00 0.00 0.00 0.00 0.00 0.00 0.00 0.00 0.00 0.00 0.00 0.00 0.00 0.00 0.00 0.00 0.00 0.00 0.00 0.00 0.00 0.00 0.00 0.00 0.00 0.02 0.08 0.07 0.04 0.04 0.01 0.00 0.04 0.08 0.04 0.04 0.04 0.01 0.00
0.00 0.00 0.00 0.00 0.00 0.00 0.00 0.00 0.00 0.00 0.00 0.00 0.00 0.00 0.00 0.00 0.00 0.00 0.00 0.00 0.00 0.00 0.00 0.00 0.00 0.00 0.00 0.00 0.00 0.00 0.00 0.02 0.09 0.15 0.08 0.06 0.03 0.02 0.03 0.06 0.08 0.03 0.04 0.04
0.00 0.00 0.00 0.00 0.00 0.00 0.00 0.00 0.00 0.00 0.00 0.00 0.00 0.00 0.00 0.00 0.00 0.00 0.00 0.00 0.00 0.00 0.00 0.00 0.00 0.00 0.00 0.00 0.00 0.00 0.00 0.00 0.01 0.06 0.12 0.16 0.16 0.13 0.09 0.18 0.21 0.13 0.07 0.10
0.00 0.00 0.00 0.00 0.00 0.00 0.00 0.00 0.00 0.00 0.00 0.00 0.00 0.00 0.00 0.00 0.00 0.00 0.00 0.00 0.00 0.00 0.00 0.00 0.00 0.00 0.00 0.00 0.00 0.00 0.00 0.01 0.03 0.01 0.00 0.04 0.16 0.26 0.23 0.23 0.26 0.26 0.20 0.16
0.00 0.00 0.00 0.00 0.00 0.00 0.00 0.00 0.00 0.00 0.00 0.00 0.00 0.00 0.00 0.00 0.00 0.00 0.00 0.00 0.00 0.00 0.00 0.00 0.00 0.00 0.00 0.00 0.00 0.00 0.00 0.00 0.00 0.00 0.00 0.00 0.00 0.04 0.16 0.19 0.17 0.17 0.23 0.18
0.00 0.00 0.00 0.00 0.00 0.00 0.00 0.00 0.00 0.00 0.00 0.00 0.00 0.00 0.00 0.00 0.00 0.00 0.00 0.00 0.00 0.00 0.00 0.00 0.00 0.00 0.00 0.00 0.00 0.00 0.00 0.00 0.00 0.00 0.00 0.00 0.00 0.00 0.00 0.01 0.03 0.03 0.10 0.10
0.01 0.01 0.00 0.00 0.00 0.00 0.00 0.00 0.00 0.00 0.00 0.00 0.00 0.00 0.00 0.00 0.00 0.00 0.00 0.00 0.00 0.00 0.00 0.00 0.00 0.00 0.00 0.00 0.00 0.00 0.00 0.00 0.00 0.00 0.00 0.00 0.00 0.00 0.00 0.00 0.00 0.00 0.00 0.00
0.04 0.03 0.02 0.00 0.00 0.00 0.00 0.00 0.00 0.00 0.01 0.00 0.00 0.00 0.00 0.00 0.00 0.00 0.00 0.00 0.00 0.00 0.00 0.00 0.00 0.00 0.00 0.00 0.00 0.00 0.00 0.00 0.00 0.00 0.00 0.00 0.00 0.00 0.00 0.00 0.00 0.00 0.00 0.00
0.01 0.03 0.03 0.02 0.00 0.00 0.00 0.00 0.00 0.00 0.03 0.04 0.03 0.01 0.01 0.00 0.00 0.00 0.00 0.00 0.00 0.00 0.00 0.00 0.00 0.00 0.00 0.00 0.00 0.00 0.00 0.00 0.00 0.00 0.00 0.00 0.00 0.00 0.00 0.00 0.00 0.00 0.00 0.00
0.00 0.00 0.00 0.00 0.01 0.01 0.00 0.00 0.00 0.00 0.00 0.02 0.04 0.06 0.05 0.01 0.00 0.01 0.00 0.00 0.00 0.00 0.00 0.00 0.00 0.00 0.00 0.00 0.00 0.00 0.00 0.00 0.00 0.00 0.00 0.00 0.00 0.00 0.00 0.00 0.00 0.00 0.00 0.00
0.00 0.00 0.00 0.00 0.00 0.00 0.00 0.00 0.00 0.00 0.00 0.00 0.00 0.02 0.03 0.01 0.00 0.00 0.00 0.00 0.00 0.00 0.00 0.00 0.00 0.00 0.00 0.00 0.00 0.00 0.00 0.00 0.00 0.00 0.00 0.00 0.00 0.00 0.00 0.00 0.00 0.00 0.00 0.00
0.00 0.00 0.00 0.00 0.00 0.00 0.00 0.00 0.00 0.00 0.01 0.00 0.00 0.01 0.01 0.00 0.00 0.00 0.00 0.00 0.00 0.00 0.00 0.00 0.00 0.00 0.00 0.00 0.00 0.00 0.00 0.00 0.00 0.00 0.00 0.00 0.00 0.00 0.00 0.00 0.00 0.00 0.00 0.00
0.00 0.00 0.00 0.00 0.00 0.00 0.00 0.00 0.00 0.00 0.01 0.00 0.01 0.02 0.02 0.00 0.00 0.00 0.00 0.00 0.00 0.00 0.00 0.00 0.00 0.00 0.00 0.00 0.00 0.00 0.00 0.00 0.00 0.00 0.00 0.00 0.00 0.00 0.01 0.00 0.00 0.00 0.00 0.00
0.00 0.00 0.00 0.00 0.00 0.00 0.00 0.00 0.01 0.03 0.05 0.02 0.01 0.01 0.02 0.01 0.00 0.00 0.01 0.00 0.00 0.00 0.00 0.00 0.00 0.00 0.00 0.00 0.00 0.00 0.00 0.00 0.00 0.00 0.00 0.00 0.00 0.00 0.00 0.00 0.00 0.00 0.00 0.00
0.00 0.00 0.00 0.00 0.00 0.00 0.00 0.00 0.02 0.06 0.08 0.03 0.00 0.02 0.03 0.01 0.00 0.00 0.00 0.00 0.00 0.00 0.00 0.00 0.00 0.00 0.00 0.00 0.00 0.00 0.00 0.00 0.00 0.00 0.00 0.00 0.00 0.00 0.00 0.01 0.01 0.00 0.00 0.00
0.03 0.01 0.01 0.01 0.00 0.00 0.00 0.00 0.00 0.04 0.04 0.01 0.01 0.02 0.01 0.00 0.00 0.00 0.00 0.00 0.00 0.00 0.00 0.00 0.00 0.00 0.00 0.00 0.00 0.00 0.00 0.00 0.00 0.00 0.00 0.00 0.00 0.00 0.00 0.01 0.03 0.03 0.00 0.00
0.04 0.02 0.02 0.02 0.00 0.00 0.00 0.00 0.00 0.00 0.00 0.00 0.00 0.00 0.00 0.00 0.00 0.00 0.00 0.00 0.00 0.00 0.00 0.00 0.00 0.00 0.00 0.00 0.00 0.00 0.00 0.00 0.00 0.00 0.00 0.00 0.00 0.00 0.00 0.00 0.00 0.00 0.00 0.00
0.04 0.04 0.09 0.02 0.00 0.00 0.00 0.00 0.00 0.00 0.02 0.01 0.00 0.00 0.00 0.00 0.00 0.00 0.00 0.00 0.00 0.00 0.00 0.00 0.00 0.00 0.00 0.00 0.00 0.00 0.00 0.00 0.00 0.00 0.00 0.00 0.00 0.00 0.00 0.00 0.00 0.00 0.00 0.00
0.05 0.07 0.09 0.03 0.00 0.00 0.00 0.01 0.00 0.01 0.03 0.01 0.00 0.00 0.00 0.00 0.00 0.00 0.00 0.00 0.00 0.00 0.00 0.00 0.00 0.00 0.00 0.00 0.00 0.00 0.00 0.00 0.00 0.00 0.00 0.00 0.00 0.00 0.00 0.00 0.00 0.00 0.00 0.00
0.09 0.09 0.09 0.03 0.00 0.00 0.00 0.00 0.01 0.04 0.06 0.03 0.00 0.00 0.00 0.00 0.00 0.00 0.00 0.00 0.00 0.00 0.00 0.00 0.00 0.00 0.00 0.00 0.00 0.00 0.00 0.00 0.00 0.00 0.00 0.00 0.00 0.00 0.00 0.00 0.00 0.00 0.00 0.00
0.13 0.10 0.16 0.03 0.01 0.02 0.00 0.00 0.01 0.03 0.07 0.04 0.00 0.00 0.00 0.00 0.00 0.00 0.00 0.00 0.00 0.00 0.00 0.00 0.00 0.00 0.00 0.00 0.00 0.00 0.00 0.00 0.00 0.00 0.00 0.00 0.00 0.00 0.00 0.00 0.00 0.00 0.00 0.00
0.03 0.09 0.15 0.13 0.10 0.06 0.04 0.03 0.02 0.01 0.02 0.00 0.00 0.00 0.00 0.00 0.00 0.00 0.00 0.00 0.00 0.00 0.00 0.00 0.00 0.00 0.00 0.00 0.00 0.00 0.00 0.00 0.00 0.00 0.00 0.00 0.00 0.00 0.00 0.00 0.00 0.00 0.00 0.00
0.00 0.02 0.04 0.07 0.08 0.14 0.05 0.03 0.02 0.00 0.00 0.00 0.00 0.00 0.00 0.00 0.00 0.00 0.00 0.00 0.00 0.00 0.00 0.00 0.00 0.00 0.00 0.00 0.00 0.00 0.00 0.00 0.00 0.00 0.00 0.00 0.00 0.00 0.00 0.00 0.00 0.00 0.00 0.00
0.00 0.01 0.03 0.01 0.02 0.04 0.07 0.06 0.03 0.03 0.12 0.16 0.12 0.05 0.01 0.00 0.00 0.00 0.00 0.00 0.00 0.00 0.00 0.00 0.00 0.00 0.00 0.00 0.00 0.00 0.00 0.00 0.00 0.00 0.00 0.00 0.00 0.00 0.00 0.00 0.00 0.00 0.00 0.00
0.00 0.01 0.01 0.01 0.00 0.00 0.00 0.01 0.05 0.04 0.06 0.07 0.04 0.02 0.00 0.00 0.00 0.00 0.00 0.00 0.00 0.00 0.00 0.00 0.00 0.00 0.00 0.00 0.00 0.00 0.00 0.00 0.00 0.00 0.00 0.00 0.00 0.00 0.00 0.00 0.00 0.00 0.00 0.00
MSLP
1003.45 1003.08 1002.97 1002.92 1003.34 1004.32 1005.39 1005.98 1006.74 1006.73 1006.85 1005.91 1005.44 1005.39 1005.72 1006.16 1006.94 1007.60 1008.29 1009.13 1009.78 1010.32 1010.86 1011.10 1011.45 1011.58 1012.00 1012.27 1012.37 1012.43 1012.77 1013.33 1013.67 1013.74 1012.89 1012.97 1013.46 1013.33 1013.42 1013.84 1014.05 1014.26 1014.62 1014.75
1003.98 1003.34 1003.05 1003.11 1002.93 1003.36 1004.12 1004.74 1005.14 1005.52 1005.92 1005.09 1005.52 1005.47 1005.82 1006.02 1006.46 1007.01 1007.97 1008.70 1009.24 1009.84 1010.42 1011.23 1011.52 1011.47 1011.78 1011.84 1012.08 1012.55 1012.82 1013.20 1013.71 1013.33 1013.21 1012.60 1012.80 1012.87 1012.86 1012.89 1013.26 1013.51 1013.63 1013.93
1004.95 1004.04 1003.54 1003.72 1002.90 1002.82 1003.11 1003.44 1004.14 1004.45 1004.36 1004.37 1005.17 1005.35 1005.10 1005.57 1005.76 1006.39 1007.40 1008.39 1009.04 1009.79 1010.29 1010.84 1011.13 1011.28 1011.56 1011.61 1011.87 1012.29 1012.58 1012.54 1012.57 1012.42 1012.45 1012.48 1012.70 1012.84 1012.54 1012.47 1012.51 1012.82 1013.07 1013.14
1005.87 1004.84 1004.29 1003.11 1002.19 1002.04 1002.65 1002.93 1003.06 1003.17 1003.28 1003.25 1003.15 1003.62 1004.20 1004.93 1005.54 1006.37 1006.99 1008.10 1008.83 1009.72 1010.33 1010.61 1010.77 1011.01 1011.22 1011.37 1011.66 1011.79 1011.83 1011.70 1011.72 1011.47 1011.59 1012.06 1012.28 1012.69 1012.19 1012.11 1012.13 1012.52 1012.36 1012.44
1006.68 1005.87 1004.62 1003.34 1002.65 1002.41 1002.52 1002.31 1002.39 1002.46 1002.23 1001.94 1002.85 1004.01 1004.71 1004.94 1005.30 1005.89 1006.81 1007.75 1008.61 1009.37 1010.22 1010.55 1010.64 1010.82 1011.15 1011.40 1011.43 1011.46 1011.48 1011.53 1011.39 1011.39 1011.77 1012.04 1011.21 1011.81 1011.58 1011.67 1011.85 1011.66 1011.63 1011.93
1007.69 1006.82 1005.30 1003.55 1002.18 1001.89 1002.50 1002.93 1002.59 1002.76 1002.89 1002.47 1003.45 1004.56 1004.45 1004.73 1005.24 1006.13 1006.76 1007.49 1008.31 1009.09 1009.90 1010.50 1010.65 1010.75 1011.15 1011.31 1011.33 1011.37 1011.29 1011.31 1011.53 1011.69 1012.02 1012.09 1011.99 1011.84 1011.59 1011.33 1011.62 1011.60 1011.51 1011.40
1006.94 1006.93 1005.91 1004.32 1003.48 1002.72 1003.17 1004.00 1003.33 1003.19 1003.54 1003.57 1003.35 1002.62 1003.01 1004.38 1005.22 1005.78 1006.74 1007.61 1008.21 1008.87 1009.56 1010.12 1010.69 1010.96 1011.32 1011.41 1011.45 1011.34 1011.21 1011.40 1011.72 1011.90 1012.14 1012.03 1011.90 1011.79 1011.70 1011.51 1010.87 1011.30 1011.68 1011.57
1007.32 1006.97 1005.93 1005.10 1004.94 1004.04 1003.43 1003.09 1002.80 1003.25 1003.89 1004.14 1002.63 1002.93 1003.53 1004.42 1005.40 1006.10 1006.91 1007.73 1008.35 1009.16 1009.81 1010.08 1010.40 1010.99 1011.61 1011.55 1011.46 1011.29 1011.50 1011.86 1012.10 1012.12 1012.08 1011.98 1011.99 1011.90 1011.91 1011.87 1011.64 1011.53 1011.70 1011.76
1008.32 1007.46 1006.24 1005.79 1005.60 1004.78 1003.83 1003.35 1004.30 1004.42 1004.00 1003.74 1003.80 1003.37 1003.91 1004.96 1005.63 1006.34 1007.03 1007.87 1008.47 1009.11 1010.03 1010.37 1010.31 1010.72 1011.55 1011.65 1011.51 1011.51 1011.67 1011.97 1012.26 1012.11 1012.40 1012.49 1012.41 1012.37 1012.35 1012.24 1012.14 1012.05 1011.97 1012.06
1008.27 1007.86 1006.74 1005.86 1004.99 1004.82 1004.66 1004.86 1004.81 1003.89 1004.46 1004.56 1004.93 1004.49 1004.52 1005.13 1005.80 1006.41 1007.14 1007.97 1008.46 1009.22 1010.09 1010.68 1010.67 1010.65 1010.85 1011.17 1011.00 1011.23 1011.59 1011.94 1012.25 1012.52 1012.80 1013.09 1013.13 1013.17 1013.21 1013.08 1012.87 1012.73 1012.56 1012.50
1008.12 1007.17 1006.59 1005.94 1005.52 1004.60 1004.60 1004.79 1004.36 1004.06 1004.37 1005.02 1005.57 1005.90 1006.79 1005.56 1005.80 1006.44 1006.94 1007.61 1008.24 1008.91 1009.75 1010.37 1010.68 1010.89 1010.85 1010.91 1011.26 1011.67 1011.76 1011.93 1012.27 1012.78 1013.18 1013.52 1014.05 1014.29 1014.01 1013.83 1013.75 1013.37 1013.04 1012.95
1007.38 1006.96 1006.72 1006.33 1005.75 1005.20 1005.02 1005.52 1005.03 1005.21 1004.90 1005.04 1005.16 1005.66 1006.70 1007.75 1005.82 1006.29 1006.83 1007.44 1008.12 1008.57 1009.23 1010.01 1010.43 1010.57 1010.73 1010.80 1011.01 1011.51 1011.97 1012.16 1012.46 1012.83 1013.15 1013.60 1013.83 1014.12 1014.12 1014.00 1013.68 1013.36 1013.08 1013.09
1006.53 1006.16 1006.11 1005.97 1005.79 1005.40 1005.43 1005.69 1004.98 1005.11 1004.19 1004.91 1005.61 1006.85 1006.79 1007.89 1006.72 1005.90 1006.56 1007.18 1007.74 1008.14 1008.59 1009.35 1009.88 1010.24 1010.59 1010.64 1010.88 1011.31 1011.75 1012.19 1012.56 1012.97 1013.32 1013.54 1013.72 1013.95 1014.20 1014.32 1013.94 1013.83 1013.87 1013.73
1005.68 1005.84 1005.81 1005.39 1005.56 1005.34 1005.34 1005.54 1004.76 1004.98 1005.39 1004.90 1004.90 1004.99 1006.01 1006.35 1006.45 1006.27 1006.46 1006.63 1007.35 1007.81 1008.35 1008.82 1009.32 1009.98 1010.34 1010.70 1011.08 1011.45 1011.74 1011.92 1012.27 1012.65 1013.04 1013.39 1013.57 1013.75 1014.05 1014.30 1014.46 1014.56 1014.53 1014.41
1005.33 1005.36 1005.30 1005.15 1005.18 1005.47 1004.92 1004.96 1004.92 1004.96 1005.19 1005.78 1006.10 1006.31 1006.52 1006.27 1006.71 1006.45 1006.41 1006.46 1007.17 1007.73 1008.32 1008.65 1009.17 1009.74 1010.18 1010.37 1010.91 1011.36 1011.72 1012.03 1012.29 1012.50 1012.65 1012.85 1013.10 1013.33 1013.63 1014.01 1014.20 1014.50 1014.67 1014.81
1005.03 1005.16 1005.31 1005.47 1005.44 1005.48 1005.21 1004.72 1004.78 1004.65 1005.70 1006.53 1005.76 1005.91 1005.97 1006.18 1006.76 1006.44 1006.53 1006.80 1007.36 1008.01 1008.26 1008.31 1008.90 1009.35 1009.68 1010.03 1010.57 1011.03 1011.43 1011.62 1012.09 1012.44 1012.62 1012.81 1013.05 1013.27 1013.57 1013.90 1014.22 1014.47 1014.49 1014.45
1005.13 1005.16 1005.02 1004.93 1004.90 1004.82 1005.08 1004.72 1004.75 1005.05 1005.81 1006.14 1006.40 1007.64 1007.36 1006.65 1006.14 1006.40 1006.56 1006.67 1007.01 1007.69 1007.93 1008.27 1008.67 1008.95 1009.30 1009.65 1010.02 1010.54 1011.05 1011.50 1011.76 1012.18 1012.40 1012.52 1012.74 1013.04 1013.33 1013.69 1013.90 1014.21 1014.38 1014.42
1005.09 1004.52 1004.37 1004.57 1004.01 1004.11 1004.53 1004.47 1004.65 1004.98 1005.54 1006.26 1006.42 1006.51 1006.91 1006.19 1006.60 1006.32 1006.72 1006.97 1007.45 1007.86 1007.93 1007.99 1008.13 1008.56 1009.01 1009.31 1009.68 1010.15 1010.76 1011.31 1011.66 1011.89 1012.08 1012.28 1012.50 1012.75 1012.97 1013.20 1013.39 1013.64 1013.74 1013.94
1004.43 1004.02 1003.51 1003.45 1003.26 1003.37 1004.13 1004.43 1004.30 1004.89 1004.65 1005.30 1006.43 1007.36 1006.89 1006.46 1006.08 1006.08 1006.77 1007.22 1007.54 1007.73 1007.94 1007.77 1007.83 1008.23 1008.76 1008.99 1009.41 1009.90 1010.52 1010.97 1011.38 1011.61 1011.75 1011.94 1012.14 1012.33 1012.64 1012.89 1013.11 1013.32 1013.45 1013.66
1004.52 1003.83 1003.52 1002.79 1002.89 1003.24 1003.44 1003.74 1004.23 1004.68 1004.61 1005.22 1006.16 1006.46 1006.54 1005.84 1005.98 1006.67 1006.75 1007.00 1006.98 1006.75 1007.01 1007.30 1007.78 1008.28 1008.44 1008.64 1008.97 1009.49 1010.07 1010.55 1010.92 1011.06 1011.39 1011.67 1011.83 1011.98 1012.12 1012.43 1012.67 1012.77 1012.93 1013.14
1003.80 1003.78 1003.56 1003.71 1003.09 1003.02 1003.20 1003.80 1004.28 1004.28 1004.85 1004.43 1005.48 1006.02 1005.65 1005.53 1005.95 1006.20 1006.60 1006.99 1006.65 1006.50 1006.63 1007.13 1007.60 1007.93 1008.14 1008.39 1008.72 1009.19 1009.71 1010.07 1010.40 1010.54 1010.81 1011.08 1011.34 1011.52 1011.63 1011.77 1012.00 1012.10 1012.29 1012.55
1004.16 1003.70 1003.67 1003.61 1002.97 1002.82 1003.07 1003.29 1003.38 1003.41 1003.74 1004.26 1005.04 1005.58 1004.84 1005.07 1005.25 1005.69 1005.68 1005.87 1006.03 1006.28 1006.64 1007.02 1007.32 1007.50 1007.81 1008.08 1008.51 1008.85 1009.19 1009.46 1009.65 1009.71 1009.81 1010.10 1010.44 1010.77 1010.91 1011.23 1011.38 1011.47 1011.55 1011.78
1004.04 1003.88 1004.10 1003.68 1004.20 1003.97 1003.09 1002.89 1002.89 1003.76 1004.33 1004.52 1004.38 1003.95 1003.97 1004.27 1004.67 1005.40 1006.02 1005.59 1005.83 1006.15 1006.37 1006.69 1006.87 1007.14 1007.36 1007.83 1008.23 1008.50 1008.86 1009.10 1009.02 1008.83 1009.07 1009.26 1009.35 1009.76 1009.99 1010.15 1010.39 1010.52 1010.70 1010.90
1004.12 1004.24 1004.02 1003.64 1003.85 1004.17 1004.52 1004.38 1004.13 1004.11 1003.88 1003.11 1003.47 1002.85 1003.48 1004.09 1004.75 1004.46 1004.45 1004.98 1005.25 1005.90 1006.14 1006.25 1006.53 1006.71 1007.01 1007.47 1007.79 1008.20 1008.57 1008.68 1008.67 1008.66 1008.76 1008.75 1009.07 1008.91 1008.99 1009.21 1009.61 1009.73 1009.77 1009.92
1005.03 1004.49 1004.39 1003.63 1004.82 1005.21 1004.91 1004.84 1004.70 1004.25 1003.76 1003.25 1002.91 1002.92 1003.16 1003.44 1003.52 1003.80 1004.32 1004.79 1004.97 1005.53 1005.67 1005.69 1005.95 1006.29 1006.84 1007.13 1007.42 1007.70 1007.94 1008.08 1008.03 1008.11 1008.24 1008.34 1008.30 1008.39 1008.31 1008.40 1008.45 1008.58 1008.98 1009.07
1005.50 1005.45 1005.05 1004.64 1004.38 1004.32 1004.05 1004.01 1004.71 1004.42 1004.20 1004.40 1004.17 1003.88 1003.50 1003.57 1003.60 1003.79 1003.97 1004.10 1004.36 1004.81 1005.02 1005.14 1005.58 1006.22 1006.58 1006.80 1007.03 1007.16 1007.22 1007.35 1007.52 1007.56 1007.57 1007.68 1007.70 1007.68 1007.79 1007.92 1007.94 1007.95 1007.86 1007.88
1005.83 1005.29 1005.28 1005.68 1005.61 1005.41 1004.74 1004.49 1004.31 1005.01 1004.81 1004.75 1005.02 1004.12 1003.44 1003.45 1003.48 1003.42 1003.45 1003.58 1003.78 1004.18 1004.40 1004.71 1005.30 1005.73 1006.09 1006.37 1006.51 1006.49 1006.68 1006.88 1007.01 1007.13 1007.14 1007.15 1007.24 1007.30 1007.35 1007.28 1007.10 1007.03 1007.05 1007.15
Thickness
5759 5769 5770 5770 5773 5763 5750 5742 5731 5749 5736 5761 5772 5779 5782 5783 5779 5776 5769 5764 5763 5761 5758 5758 5755 5756 5753 5751 5752 5750 5747 5744 5749 5750 5761 5765 5764 5770 5772 5767 5765 5766 5764 5765
5753 5764 5762 5754 5765 5770 5767 5756 5752 5748 5744 5777 5773 5777 5777 5782 5780 5778 5772 5767 5762 5762 5758 5751 5749 5752 5751 5752 5749 5745 5742 5741 5737 5743 5748 5758 5762 5765 5769 5771 5769 5769 5771 5769
5721 5746 5744 5724 5743 5760 5766 5768 5758 5742 5761 5772 5765 5770 5780 5780 5785 5782 5776 5768 5760 5756 5754 5752 5750 5751 5749 5750 5749 5742 5740 5741 5742 5744 5747 5751 5755 5758 5764 5768 5770 5767 5769 5771
5701 5727 5701 5736 5761 5766 5762 5767 5768 5769 5767 5775 5785 5786 5782 5782 5781 5777 5774 5765 5759 5752 5749 5751 5750 5749 5748 5748 5745 5744 5742 5743 5745 5748 5749 5748 5749 5750 5759 5765 5765 5763 5764 5770
5688 5687 5715 5739 5746 5745 5747 5756 5771 5767 5776 5785 5785 5774 5772 5779 5781 5777 5769 5763 5757 5753 5746 5746 5748 5747 5742 5741 5742 5744 5745 5743 5745 5746 5745 5743 5746 5748 5755 5758 5757 5762 5763 5764
5671 5677 5679 5721 5754 5758 5752 5725 5763 5760 5759 5772 5766 5742 5756 5775 5776 5770 5766 5761 5756 5753 5747 5742 5744 5744 5739 5736 5736 5736 5739 5741 5741 5741 5739 5738 5740 5743 5748 5753 5750 5751 5753 5760
5680 5667 5686 5722 5735 5747 5705 5717 5748 5759 5753 5754 5758 5778 5781 5776 5772 5771 5763 5755 5753 5749 5746 5742 5737 5737 5735 5733 5730 5732 5735 5735 5733 5732 5731 5734 5737 5739 5741 5744 5751 5747 5745 5750
5666 5662 5663 5715 5710 5708 5726 5747 5751 5753 5747 5744 5769 5769 5772 5772 5765 5764 5756 5750 5749 5739 5737 5738 5735 5729 5724 5726 5728 5729 5726 5723 5723 5725 5727 5730 5730 5733 5734 5735 5737 5739 5739 5740
5656 5661 5685 5699 5699 5709 5725 5738 5726 5731 5743 5752 5754 5765 5764 5761 5760 5757 5751 5746 5743 5736 5725 5726 5730 5727 5719 5719 5722 5722 5720 5716 5715 5718 5717 5718 5719 5722 5724 5726 5727 5728 5729 5729
5656 5663 5679 5691 5705 5707 5710 5713 5717 5736 5735 5739 5740 5751 5754 5754 5755 5751 5744 5738 5738 5731 5721 5715 5716 5720 5719 5717 5720 5721 5717 5713 5712 5709 5707 5706 5707 5708 5709 5711 5714 5715 5717 5717
5647 5666 5674 5683 5692 5704 5705 5706 5715 5726 5727 5730 5729 5727 5725 5745 5746 5742 5740 5737 5735 5728 5721 5715 5711 5707 5710 5712 5709 5706 5709 5710 5707 5701 5698 5695 5691 5690 5695 5696 5697 5704 5705 5705
5644 5657 5664 5671 5682 5691 5692 5688 5699 5706 5712 5723 5727 5720 5721 5718 5739 5736 5735 5732 5727 5724 5719 5712 5707 5704 5702 5704 5704 5700 5698 5699 5698 5695 5694 5692 5690 5687 5685 5685 5687 5690 5693 5695
5656 5665 5665 5669 5674 5683 5683 5683 5696 5701 5716 5716 5720 5706 5713 5712 5724 5735 5733 5728 5724 5722 5720 5713 5705 5700 5695 5697 5698 5696 5692 5690 5688 5686 5683 5682 5682 5681 5679 5676 5676 5677 5677 5679
5661 5663 5662 5669 5666 5675 5680 5679 5694 5702 5704 5715 5720 5722 5719 5718 5720 5723 5726 5730 5724 5720 5716 5710 5704 5697 5693 5690 5687 5685 5684 5684 5684 5680 5677 5674 5672 5670 5668 5666 5665 5664 5662 5661
5657 5659 5661 5665 5668 5666 5678 5679 5680 5686 5694 5697 5702 5707 5710 5714 5713 5715 5722 5725 5718 5714 5708 5704 5699 5693 5689 5688 5683 5678 5675 5674 5672 5671 5669 5667 5665 5662 5660 5656 5655 5651 5650 5649
5655 5655 5656 5655 5657 5660 5668 5676 5674 5683 5680 5681 5692 5689 5702 5712 5706 5708 5712 5710 5709 5704 5704 5702 5695 5692 5689 5686 5681 5676 5672 5671 5666 5662 5659 5656 5653 5651 5648 5644 5641 5640 5642 5643
5647 5645 5648 5651 5656 5660 5662 5667 5670 5672 5672 5678 5678 5670 5675 5691 5699 5703 5708 5709 5706 5701 5700 5696 5692 5690 5686 5683 5680 5675 5670 5665 5663 5657 5653 5650 5647 5643 5639 5636 5634 5631 5631 5631
5644 5649 5653 5655 5660 5663 5661 5663 5666 5670 5671 5672 5676 5678 5678 5691 5688 5699 5701 5701 5696 5693 5693 5693 5693 5688 5683 5681 5677 5672 5666 5660 5656 5651 5647 5643 5639 5635 5632 5630 5630 5630 5628 5627
5648 5652 5658 5659 5664 5664 5657 5656 5665 5670 5680 5680 5669 5664 5678 5686 5691 5698 5693 5692 5689 5686 5686 5690 5690 5685 5680 5678 5673 5668 5662 5656 5651 5647 5644 5639 5634 5630 5625 5624 5623 5623 5624 5622
5639 5644 5650 5661 5663 5662 5663 5664 5665 5663 5675 5675 5671 5673 5674 5684 5687 5681 5689 5688 5689 5692 5691 5688 5683 5678 5677 5675 5672 5666 5660 5655 5650 5646 5642 5638 5633 5629 5626 5622 5621 5621 5620 5619
5641 5640 5643 5646 5655 5662 5666 5662 5661 5664 5665 5674 5671 5670 5677 5682 5682 5685 5682 5678 5685 5688 5687 5684 5680 5677 5676 5673 5669 5665 5660 5654 5650 5647 5643 5638 5634 5631 5629 5626 5623 5621 5621 5619
5638 5640 5640 5642 5653 5661 5660 5663 5666 5671 5670 5670 5670 5671 5679 5684 5686 5683 5684 5683 5685 5685 5683 5680 5678 5676 5674 5672 5669 5665 5662 5657 5654 5652 5650 5645 5638 5635 5634 5630 5626 5624 5623 5620
5636 5639 5637 5642 5638 5644 5660 5665 5671 5667 5663 5668 5673 5680 5685 5683 5682 5674 5669 5683 5683 5681 5680 5678 5677 5675 5674 5670 5668 5665 5662 5659 5658 5657 5655 5652 5650 5645 5640 5637 5634 5632 5629 5626
5637 5637 5639 5644 5640 5643 5642 5647 5657 5653 5663 5677 5677 5685 5682 5678 5674 5680 5688 5684 5681 5678 5678 5677 5675 5673 5671 5668 5666 5663 5660 5659 5659 5657 5655 5653 5649 5648 5648 5645 5640 5637 5634 5631
5632 5636 5637 5642 5632 5632 5639 5642 5647 5652 5659 5669 5675 5678 5678 5679 5681 5682 5681 5679 5678 5675 5675 5675 5674 5672 5667 5664 5662 5661 5659 5657 5658 5657 5655 5653 5652 5651 5650 5649 5647 5644 5639 5638
5628 5626 5631 5635 5638 5641 5647 5649 5644 5649 5653 5654 5659 5664 5671 5673 5676 5677 5678 5678 5677 5675 5675 5674 5671 5666 5663 5662 5660 5659 5658 5657 5656 5655 5654 5653 5652 5652 5650 5648 5646 5645 5645 5645
5625 5629 5629 5626 5626 5628 5637 5641 5644 5638 5643 5647 5647 5655 5665 5668 5670 5674 5674 5673 5674 5674 5672 5671 5667 5665 5663 5661 5659 5659 5657 5654 5652 5651 5650 5649 5648 5648 5647 5646 5647 5647 5646 5645